EW0139 Weather Reports


Display with metric or nautical units.
time (UTC)temp
F
wind
direction
speed
MPH
gust
MPH
rain 1hr
in
rain 24hr
in
rain mn
in
humidity
%
barometer
mb
20260831110743 58 229 13.0 17.0 0.00 0.03 0.00 53 1008.3
20260831105249 58 258 9.0 15.0 0.00 0.03 0.00 53 1008.4
20260831103753 58 205 16.0 17.0 0.00 0.03 0.00 53 1008.4
20260831102252 57 224 12.0 20.0 0.00 0.03 0.00 53 1008.4
20260831100755 57 217 9.0 18.0 0.00 0.03 0.00 53 1008.5
20260831095241 56 219 10.0 16.0 0.00 0.03 0.00 54 1008.3
20260831093804 55 207 7.0 12.0 0.00 0.03 0.00 55 1008.1
20260831092244 55 213 5.0 11.0 0.00 0.03 0.00 55 1008.0
20260831090749 56 229 6.0 12.0 0.00 0.03 0.00 54 1008.0
20260831085250 55 230 6.0 13.0 0.00 0.03 0.00 55 1008.0
20260831083755 53 191 2.0 4.0 0.00 0.03 0.00 58 1008.0
20260831082257 53 194 4.0 4.0 0.00 0.03 0.00 57 1007.9
20260831080819 53 169 3.0 6.0 0.00 0.03 0.00 57 1008.0
20260831075308 50 189 2.0 2.0 0.00 0.03 0.00 63 1008.8
20260831073749 50 189 0.0 0.0 0.00 0.03 0.00 63 1008.9
20260831072249 51 189 0.0 4.0 0.00 0.03 0.00 61 1009.0
20260831070757 52 189 1.0 2.0 0.00 0.03 0.00 59 1009.3
20260831065240 53 189 1.0 3.0 0.00 0.03 0.00 59 1009.3
20260831063748 53 189 2.0 4.0 0.00 0.03 0.00 58 1009.2
20260831062253 54 189 3.0 5.0 0.00 0.03 0.00 58 1009.4
20260831060815 54 161 1.0 6.0 0.00 0.03 0.00 57 1009.4
20260831055259 54 145 5.0 7.0 0.00 0.03 0.03 58 1009.2
20260831053800 56 138 5.0 6.0 0.00 0.03 0.03 56 1009.4
20260831052241 53 156 1.0 4.0 0.00 0.03 0.03 62 1009.5
20260831050809 54 244 1.0 3.0 0.00 0.03 0.03 59 1009.6
20260831045248 54 244 0.0 0.0 0.00 0.03 0.03 59 1009.6
20260831043747 55 243 0.0 2.0 0.00 0.03 0.03 59 1009.6
20260831042312 55 244 1.0 2.0 0.00 0.03 0.03 58 1009.6
20260831040752 54 244 0.0 1.0 0.00 0.03 0.03 59 1009.5
20260831035257 55 244 0.0 2.0 0.00 0.03 0.03 56 1009.5
20260831033759 57 243 0.0 0.0 0.00 0.03 0.03 52 1009.2
20260831032301 59 244 0.0 0.0 0.00 0.03 0.03 50 1009.4
20260831030747 59 243 0.0 2.0 0.00 0.03 0.03 49 1009.4
20260831025249 60 244 0.0 1.0 0.00 0.03 0.03 48 1009.3
20260831023751 61 243 2.0 3.0 0.00 0.03 0.03 46 1009.0
20260831022258 63 244 0.0 4.0 0.00 0.03 0.03 44 1008.6
20260831020819 63 231 2.0 5.0 0.00 0.03 0.03 45 1008.8
20260831015242 65 273 0.0 2.0 0.00 0.03 0.03 43 1008.6
20260831013741 66 273 0.0 2.0 0.00 0.03 0.03 42 1008.5
20260831012242 67 273 2.0 5.0 0.00 0.03 0.03 41 1008.6
20260831010748 69 273 6.0 9.0 0.00 0.03 0.03 39 1008.6
20260831005248 70 263 9.0 14.0 0.00 0.03 0.03 37 1008.5
20260831003750 70 238 16.0 16.0 0.00 0.03 0.03 39 1008.5
20260831002255 70 247 12.0 17.0 0.00 0.03 0.03 39 1008.4
20260831000815 71 258 13.0 18.0 0.00 0.03 0.03 37 1008.3
20260830235315 71 219 15.0 19.0 0.00 0.03 0.03 37 1008.2
20260830233740 71 231 7.0 14.0 0.00 0.03 0.03 41 1009.1
20260830232246 71 239 10.0 23.0 0.00 0.03 0.03 39 1009.2
20260830230752 70 212 9.0 17.0 0.00 0.03 0.03 46 1009.2
20260830225313 70 236 9.0 13.0 0.00 0.03 0.03 50 1009.3
20260830223753 68 227 7.0 14.0 0.00 0.03 0.03 55 1009.3
20260830222320 67 221 13.0 16.0 0.00 0.03 0.03 55 1009.5
20260830220821 66 256 11.0 17.0 0.00 0.03 0.03 55 1009.8
20260830215305 65 263 11.0 13.0 0.00 0.03 0.03 56 1010.1
20260830213748 64 197 2.0 3.0 0.00 0.03 0.03 56 1008.9
20260830212248 65 197 0.0 10.0 0.00 0.03 0.03 56 1008.9
20260830210749 65 204 10.0 13.0 0.00 0.03 0.03 59 1009.7
20260830205254 65 202 9.0 17.0 0.00 0.03 0.03 59 1010.7
20260830203755 65 175 10.0 18.0 0.00 0.03 0.03 59 1010.6
20260830202240 66 228 7.0 19.0 0.00 0.03 0.03 61 1010.5
20260830200745 66 224 9.0 17.0 0.00 0.03 0.03 57 1009.9
20260830195306 67 226 16.0 20.0 0.00 0.03 0.03 56 1009.8
20260830193751 67 242 12.0 24.0 0.00 0.03 0.03 55 1009.7
20260830192254 69 289 7.0 13.0 0.00 0.03 0.03 49 1009.0
20260830190755 67 292 7.0 13.0 0.00 0.03 0.03 55 1008.5
20260830185321 67 304 14.0 19.0 0.00 0.03 0.03 58 1008.5
20260830183740 66 288 19.0 21.0 0.00 0.03 0.03 60 1009.1
20260830182244 66 267 12.0 21.0 0.00 0.03 0.03 59 1009.4
20260830180751 67 248 16.0 21.0 0.00 0.03 0.03 60 1009.5
20260830175250 66 278 12.0 25.0 0.00 0.03 0.03 59 1009.6
20260830173755 66 263 13.0 24.0 0.00 0.03 0.03 62 1009.8
20260830172254 66 261 10.0 18.0 0.00 0.03 0.03 62 1009.6
20260830170756 65 259 13.0 15.0 0.00 0.03 0.03 67 1009.6
20260830165258 66 279 13.0 20.0 0.00 0.03 0.03 62 1009.4
20260830163759 66 280 12.0 24.0 0.00 0.03 0.03 60 1009.2
20260830162240 66 277 19.0 25.0 0.00 0.03 0.03 58 1009.0
20260830160745 65 276 14.0 21.0 0.00 0.03 0.03 66 1008.9
20260830155307 65 269 13.0 21.0 0.00 0.03 0.03 71 1008.7
20260830153810 64 279 13.0 21.0 0.01 0.03 0.03 70 1008.5
20260830152254 64 293 18.0 18.0 0.01 0.03 0.03 74 1008.6
20260830150753 62 302 11.0 18.0 0.01 0.03 0.03 78 1008.3
20260830145315 61 284 13.0 16.0 0.01 0.03 0.03 81 1008.4
20260830143737 61 282 11.0 15.0 0.00 0.02 0.02 83 1008.4
20260830142241 61 260 10.0 13.0 0.00 0.02 0.02 83 1008.3
20260830140749 61 279 5.0 7.0 0.00 0.02 0.02 83 1008.1
20260830135249 61 265 4.0 6.0 0.00 0.02 0.02 82 1008.1
20260830133750 62 288 5.0 10.0 0.00 0.02 0.02 78 1008.1
20260830132254 61 299 0.0 4.0 0.00 0.02 0.02 80 1008.0
20260830130754 61 306 6.0 7.0 0.01 0.02 0.02 81 1008.1
20260830125239 61 312 4.0 10.0 0.01 0.02 0.02 81 1007.9
20260830123802 60 296 7.0 11.0 0.02 0.02 0.02 79 1007.8
20260830122244 60 290 13.0 17.0 0.02 0.02 0.02 78 1007.6
20260830120751 60 298 15.0 15.0 0.01 0.01 0.01 75 1007.8
20260830115252 60 298 10.0 22.0 0.01 0.01 0.01 75 1007.1
20260830113753 63 282 11.0 12.0 0.00 0.00 0.00 67 1007.6
20260830112258 64 271 6.0 11.0 0.00 0.00 0.00 60 1008.1